www.pogodaiklimat.ru

Погода и климат >> Архив погоды >> Индия >> округ Дели >> Нью-Дели


АРХИВ ПОГОДЫ в Нью-Дели

Время (UTC), дата Ветер
(напр.,м/с)
 
Видим.   Явления Облачность Т
(С)
Тd
(С)
f
(%)
Тe
(С)
Тes
(С)
Комфортность P
(гПа)
Po
(гПа)
Тmin
(С)
Tmax
(С)
R
(мм)
R24
(мм)
S
(см)
18 16.08 В 5 2000 м дымка 8/5 1200 м
[Sc Ac trans]
+28.8 +25.7 83 +43 +43 опасность
перегрева
998.5 974.4 4
21 16.08 СВ 2 2000 м дождь 10/8 600 м
[Frnb As op]
+27.6 +25.6 89 +41 +41 опасность
перегрева
997.6 973.4 4
00 17.08 В 3 2000 м в посл. час дождь {морось} 10/8 750 м
[Frnb As op]
+26.0 +25.1 95 +37 +37 очень
душно
997.4 973.1 7
03 17.08 В 4 2000 м слаб. морось 10/4 900 м
[Cb calv As op]
+26.4 +25.4 94 +38 +39 очень
душно
999.0 974.7 +25.2 +32.5 7
06 17.08 В 4 2000 м дымка 10/6 900 м
[Sc As op]
+28.0 +25.7 87 +41 +42 опасность
перегрева
999.8 975.6 0.3
09 17.08 ЮВ 3 2000 м слаб. дождь 10/6 900 м
[Sc As op]
+28.2 +26.5 91 +44 +45 опасность
перегрева
999.5 975.3 1
12 17.08 В 3 2000 м дымка {дождь} 10/6 900 м
[Sc As op]
+27.0 +25.3 90 +39 +39 очень
душно
997.2 973.0 +29.0 1
15 17.08 В 2 2000 м слаб. дождь 10/6 900 м
[Cb cap As op]
+26.6 +26.0 97 +40 +40 очень
душно
999.0 974.7 7
18 17.08 ЮВ 3 2000 м слаб. морось {дождь} 10/6 900 м
[Cb cap As op]
+26.2 +25.9 98 +39 +39 очень
душно
999.9 975.5 7
21 17.08 Ю 3 2000 м дымка {дождь} 10/6 900 м
[Cb calv As op]
+26.2 +25.6 97 +39 +39 очень
душно
1000.0 975.6 18
00 18.08 Ю 2 2000 м дымка {дождь} 10/6 900 м
[Cb calv As op]
+26.0 +25.4 97 +38 +38 очень
душно
1000.6 976.2 44
03 18.08 Ю 2 2000 м слаб. морось {дождь} 10/6 900 м
[Cb calv As op]
+25.8 +25.1 96 +37 +38 очень
душно
1002.5 978.0 +24.8 +29.0 46
06 18.08 З 4 2000 м дымка 10/6 900 м
[Cb calv As op]
+27.4 +24.5 84 +39 +40 очень
душно
1003.0 978.7 0.4
12 18.08 В 2 2000 м дымка 8/4 1050 м
[Sc Ac trans]
+29.6 +25.1 77 +43 +44 опасность
перегрева
1001.2 977.1 +29.7 2
15 18.08 штиль 0 2000 м дымка 5/3 1200 м
[Sc Ac trans]
+27.6 +25.3 87 +40 +40 очень
душно
1003.1 978.8 2
18 18.08 штиль 0 2000 м дымка 9/5 1200 м
[Sc As op]
+27.0 +26.2 95 +41 +41 опасность
перегрева
1004.4 980.0 2
21 18.08 штиль 0 2000 м дымка 6/4 1200 м
[Sc Ac trans]
+26.4 +25.0 92 +38 +38 очень
душно
1003.7 979.3 2
00 19.08 штиль 0 500 м дымка 5/3 1200 м
[Sc Ac trans]
+25.8 +24.9 95 +37 +37 очень
душно
1003.7 979.2 2
03 19.08 ЮЗ 2 2000 м дымка 3/0
[Ac trans]
+28.4 +26.2 88 +43 +49 опасность
перегрева
1005.3 981.0 +23.6 +29.7 2
06 19.08 З 3 2000 м мгла 6/4 1050 м
[Sc Ac trans]
+32.2 +24.2 63 +44 +53 опасность
перегрева
1005.1 981.1
09 19.08 З 2 2000 м мгла 8/5 1050 м
[Cb calv Ac trans]
+33.2 +23.4 57 +44 +49 опасность
перегрева
1003.5 979.6
12 19.08 З 2 2000 м мгла 8/4 1050 м
[Cb calv Ac trans]
+33.2 +24.1 59 +45 +46 опасность
перегрева
1002.2 978.3 +34.4
15 19.08 С 1 2000 м дымка 6/4 1050 м
[Sc Ac trans]
+30.6 +26.1 77 +46 +46 опасность
перегрева
1003.4 979.3
18 19.08 штиль 0 2000 м дымка 5/3 1200 м
[Sc Ac trans]
+29.0 +26.5 86 +44 +44 опасность
перегрева
1004.0 979.8
21 19.08 штиль 0 2000 м дымка 5/3 1200 м
[Sc Ac trans]
+28.2 +26.2 89 +43 +43 опасность
перегрева
1003.7 979.4
00 20.08 З 1 2000 м дымка 6/4 1200 м
[Sc Ac trans]
+28.2 +26.2 89 +43 +43 опасность
перегрева
1003.8 979.5
03 20.08 З 3 2000 м дымка 8/4 1050 м
[Sc Ac trans]
+29.4 +26.6 85 +45 +47 опасность
перегрева
1005.2 981.0 +25.6 +34.4
06 20.08 С 2 2000 м дымка 8/4 900 м
[Cb calv Ac trans]
+31.6 +26.6 75 +49 +55 опасность
перегрева
1005.0 980.9 0.0
09 20.08 С 4 2000 м мгла 8/4 900 м
[Cb calv Ac trans]
+34.0 +24.0 56 +46 +50 опасность
перегрева
1002.5 978.7 0.0
12 20.08 З 4 2000 м мгла 4/1 1050 м
[Sc Ac trans]
+34.2 +23.9 55 +46 +47 опасность
перегрева
1000.9 977.1 +34.6 0.0
15 20.08 СЗ 1 2000 м мгла 3/0
[Ac trans]
+30.8 +24.2 68 +43 +43 опасность
перегрева
1001.9 977.9 0.0
18 20.08 З 1 2000 м дымка 3/0
[Ac trans]
+28.8 +25.1 80 +42 +42 опасность
перегрева
1002.7 978.5 0.0
21 20.08 З 1 2000 м дымка 5/3 1200 м
[Sc Ac trans]
+28.0 +25.7 87 +41 +41 опасность
перегрева
1001.8 977.5 0.0
00 21.08 З 2 2000 м дымка 3/0
[Ac trans]
+27.4 +26.0 92 +41 +41 опасность
перегрева
1001.8 977.5 0.0
03 21.08 ЮЗ 2 2000 м дымка 5/3 1200 м
[Sc Ac trans]
+29.8 +26.5 83 +46 +50 опасность
перегрева
1002.8 978.7 +24.8 +34.6 0.0
06 21.08 С 3 2000 м мгла 8/4 1050 м
[Sc Ac trans]
+33.8 +26.0 64 +50 +56 опасность
перегрева
1003.0 979.2
09 21.08 С 3 2000 м мгла 8/4 1050 м
[Sc Ac trans]
+35.6 +23.6 50 +46 +51 опасность
перегрева
1000.8 977.2
12 21.08 З 3 2000 м мгла 5/3 1050 м
[Sc Ac trans]
+34.6 +23.4 52 +45 +46 опасность
перегрева
999.7 976.0 +36.1
15 21.08 СВ 1 2000 м мгла 5/3 1200 м
[Sc Ac trans]
+31.8 +25.9 71 +47 +47 опасность
перегрева
1001.7 977.7
18 21.08 штиль 0 2000 м дымка 5/3 1200 м
[Sc Ac trans]
+30.0 +26.7 83 +47 +47 опасность
перегрева
1002.7 978.6
21 21.08 штиль 0 2000 м дымка 5/3 1200 м
[Sc Ac trans]
+28.6 +27.2 92 +45 +45 опасность
перегрева
1002.1 977.9
00 22.08 З 1 2000 м дымка 5/3 1200 м
[Sc Ac trans]
+27.0 +25.0 89 +39 +39 очень
душно
1002.5 978.1
03 22.08 З 2 2000 м дымка 6/4 1200 м
[Sc Ac trans]
+29.4 +24.5 75 +42 +45 опасность
перегрева
1003.9 979.7 +24.5 +36.1
06 22.08 З 3 2000 м мгла 8/4 1200 м
[Sc Ac trans]
+33.2 +25.6 64 +48 +54 опасность
перегрева
1003.3 979.4
09 22.08 З 2 2000 м мгла 8/4 1050 м
[Cb calv Ac trans]
+34.4 +25.8 61 +50 +55 опасность
перегрева
1001.6 977.8
12 22.08 В 2 2000 м дымка {гроза, дождь} 6/4 1050 м
[Cb calv Ac trans]
+29.8 +25.0 75 +43 +44 опасность
перегрева
1000.3 976.2 +35.2 0.2
15 22.08 штиль 0 2000 м дымка 5/3 1200 м
[Sc Ac trans]
+29.0 +24.7 78 +41 +41 опасность
перегрева
1001.5 977.3 0.2
18 22.08 Ю 1 2000 м дымка 8/5 1200 м
[Sc Ac trans]
+28.0 +24.6 82 +40 +40 очень
душно
1003.2 978.9 0.2
21 22.08 штиль 0 2000 м дымка 3/0
[Ac trans]
+27.8 +24.6 83 +39 +39 очень
душно
1002.4 978.1 0.2
00 23.08 штиль 0 2000 м дымка 5/3 1200 м
[Sc Ac trans]
+27.0 +24.4 86 +38 +38 очень
душно
1003.2 978.8 0.2
03 23.08 З 2 2000 м дымка 3/0
[Ac trans]
+29.6 +25.4 78 +43 +49 опасность
перегрева
1003.2 979.0 +24.6 +35.2 0.2
06 23.08 З 3 4000 м мгла 5/3 1200 м
[Sc Ac trans]
+34.6 +26.0 61 +50 +59 опасность
перегрева
1002.7 978.9
09 23.08 З 5 2000 м мгла 9/5 1050 м
[Cb calv Ac trans]
+35.8 +24.5 52 +48 +50 опасность
перегрева
1000.3 976.7
12 23.08 С 2 2000 м мгла 9/5 1050 м
[Cb calv Ac trans]
+33.8 +24.8 59 +47 +47 опасность
перегрева
999.6 975.8 +36.2

 

Местоположение метеостанции Нью-Дели (округ Дели, Индия): широта 28.58 долгота 77.20 высота над уровнем моря 216 м.

В архиве по умолчанию представлена погода в Нью-Дели за последнюю неделю. Архивные данные за месяц целиком и за предыдущие месяцы, начиная с января 2011 года, Вы можете получить, выбрав интересующий диапазон дат из раскрывающегося списка и нажав кнопку "Ввод!".


*Определитесь, кто Вы:
робот инопланетянин человек

Внимание! Время в таблицах - всемирное. Для получения местного времени необходимо прибавить поправку, которая равна 5.5 ч.

Смотрите также архив погоды в соседних городах и на ближайших метеорологических станциях:

Погода в Нью-Дели аэропорт (округ Дели, Индия) (8 км)
Погода в Ридже (округ Дели, Индия) (10 км)
Погода в Нью-Дели Айя Нагар (округ Дели, Индия) (13 км)
Погода в Рохтаке (Харьяна, Индия) (67 км)
Погода в Мератхе (Уттар-Прадеш, Индия) (70 км)
Погода в Карнале (Харьяна, Индия) (126 км)
Погода в Хисаре (Харьяна, Индия) (157 км)
Погода в Пилани (Раджастхан, Индия) (161 км)
Погода в Нейджибабаде (Уттар-Прадеш, Индия) (163 км)
Погода в Агре (Уттар-Прадеш, Индия) (176 км)

Пояснения к столбцам:

Ветер - указаны скорость ветра в м/с - средняя за 10 мин, порывы в срок и между сроками (в фигурных скобках) и направление, откуда дует ветер: С - северный, СВ - северо-восточный, В - восточный, ЮВ - юго-восточный, Ю - южный, ЮЗ - юго-западный, З - западный, СЗ - северо-западный.
Видимость - горизонтальная дальность видимости в метрах или километрах. При видимости от 1 до 10 км при отсутствии осадков обычно наблюдается дымка, при ухудшении видимости до 1 км и менее - туман. В сухую погоду видимость может ухудшаться дымом, пылью или мглою.
Явления - указаны атмосферные явления, наблюдавшиеся в срок или в последний час перед сроком; фигурными скобками обозначены явления, наблюдавшиеся между сроками (за 1-3 часа до срока); квадратными скобками обозначены град или гололедные отложения с указанием их диаметра в мм.
Облачность - указаны через наклонную черту общая и нижняя облачность в баллах и высота нижней границы облаков в метрах; квадратными скобками обозначены формы облаков: Ci - перистые, Cs - перисто-слоистые, Cc - перисто-кучевые, Ac - высококучевые, As - высокослоистые, Sc - слоисто-кучевые, Ns - слоисто-дождевые, Cu - кучевые, Cb - кучево-дождевые. Подробнее классификацию облаков см. в Атласе облаков (PDF).
T - Температура воздуха - температура, измеренная на высоте 2 м над землей.
Td - Температура точки росы - температура, при понижении до которой содержащийся в воздухе водяной пар достигнет насыщения.
f - Относительная влажность воздуха - влажноcть воздуха, измеренная на высоте 2 м над землей.
Te - Эффективная температура - температура, которую ощущает одетый по сезону человек в тени. Характеристика душности погоды. При расчете учитывается влияние влажности воздуха и скорости ветра на теплоощущения человека.
Tes - Эффективная температура на солнце - температура, которую ощущает человек, с поправкой на солнечный нагрев. Характеристика знойности погоды. Зависит от высоты солнца над горизонтом, облачности и скорости ветра. Ночью, в пасмурную погоду, а также при ветре 12 м/с и более поправка равна нулю.
P - Атмосферное давление - приведенное к уровню моря атмосферное давление.
Po - Атмосферное давление - измеренное на уровне метеостанции атмосферное давление.
Tmin - Минимальная температура - минимум температуры воздуха на высоте 2 м над землей.
Tmax - Максимальная температура - максимум температуры воздуха на высоте 2 м над землей.
R - Количество осадков - Количество выпавших осадков за период времени, мм. При наведении курсора мыши на число - период времени, за который выпало указанное количество осадков.
R24 - Количество осадков - Количество выпавших осадков за 24 часа, мм.
S - Снежный покров - Высота снежного покрова, см. При наведении курсора мыши на число - состояние снежного покрова и степень покрытия местности в баллах.